ALDN68 YBDG-YSNW

Flight info

Callsign ALDN68
Flight time N/A
Altitude 25000
Route DORSU DCT COR DCT COM DCT NAMA
Aircraft PC21/L-SDFGTUVY/C

Departure

Time 2026-04-17 03:39
Airport Bendigo Airport (YBDG)

Arrival

Time N/A
Airport Naval Air Station Nowra - HMAS Albatross (YSNW)
Time Latitude Longitude Altitude Speed Heading
2026-04-17 03:29 -36.73889 144.32667 699 ft 0 kts 320°
2026-04-17 03:33 -36.73879 144.32664 695 ft 5 kts 13°
2026-04-17 03:34 -36.73860 144.32683 699 ft 5 kts 39°
2026-04-17 03:34 -36.73857 144.32686 699 ft 6 kts 38°
2026-04-17 03:34 -36.73790 144.32735 697 ft 14 kts 24°
2026-04-17 03:34 -36.73742 144.32756 699 ft 4 kts
2026-04-17 03:35 -36.73724 144.32774 697 ft 8 kts 67°
2026-04-17 03:35 -36.73723 144.32777 698 ft 6 kts 74°
2026-04-17 03:35 -36.73729 144.32853 697 ft 16 kts 95°
2026-04-17 03:35 -36.73674 144.32910 697 ft 12 kts
2026-04-17 03:36 -36.73411 144.32918 693 ft 17 kts 355°
2026-04-17 03:36 -36.73308 144.32938 698 ft 10 kts 50°
2026-04-17 03:36 -36.73303 144.32956 698 ft 0 kts 96°
2026-04-17 03:37 -36.73280 144.33030 698 ft 15 kts 24°
2026-04-17 03:37 -36.73175 144.33041 697 ft 18 kts
2026-04-17 03:38 -36.73039 144.33038 690 ft 21 kts 357°
2026-04-17 03:38 -36.72899 144.33029 696 ft 15 kts 343°
2026-04-17 03:38 -36.72855 144.33029 695 ft 4 kts 59°
2026-04-17 03:38 -36.72909 144.33045 692 ft 35 kts 181°
2026-04-17 03:39 -36.73466 144.33018 756 ft 113 kts 184°
2026-04-17 03:39 -36.74362 144.32992 1495 ft 140 kts 174°
2026-04-17 03:39 -36.74843 144.34056 2329 ft 195 kts 67°
2026-04-17 03:39 -36.73588 144.34967 3140 ft 220 kts 14°
2026-04-17 03:40 -36.72050 144.35447 4152 ft 240 kts
2026-04-17 03:40 -36.70317 144.35913 4873 ft 269 kts 13°
2026-04-17 03:40 -36.68470 144.36437 5555 ft 279 kts
2026-04-17 03:40 -36.66571 144.36994 6458 ft 282 kts 25°
2026-04-17 03:41 -36.65156 144.38618 7305 ft 276 kts 63°
2026-04-17 03:41 -36.64741 144.40612 8012 ft 205 kts 91°
2026-04-17 03:41 -36.64643 144.42230 7875 ft 174 kts 92°
2026-04-17 03:41 -36.64557 144.43709 7465 ft 167 kts 92°
2026-04-17 03:42 -36.64488 144.45101 7150 ft 157 kts 94°
2026-04-17 03:42 -36.64485 144.45172 7129 ft 157 kts 94°
2026-04-17 03:42 -36.64456 144.46100 6812 ft 160 kts 95°
2026-04-17 03:42 -36.64360 144.47483 6446 ft 155 kts 88°
2026-04-17 03:43 -36.64210 144.48705 6341 ft 135 kts 87°
2026-04-17 03:43 -36.63548 144.49043 5495 ft 140 kts 302°
2026-04-17 03:43 -36.63265 144.48031 5247 ft 115 kts 269°
2026-04-17 03:43 -36.63222 144.47010 4657 ft 134 kts 263°
2026-04-17 03:44 -36.63219 144.45794 4174 ft 144 kts 262°